Change the Weather History Date:

Sunday, January 6, 2013

  Actual Average Record
Temperature  
Mean Temperature 45 °F 42 °F  
Max Temperature 52 °F 49 °F 65 °F (1969)
Min Temperature 38 °F 36 °F 12 °F (1974)
Degree Days  
Heating Degree Days 20 23  
Month to date heating degree days 150 138  
Since 1 July heating degree days 1546 1778  
Cooling Degree Days 0 0  
Month to date cooling degree days 0 0  
Year to date cooling degree days 0 0  
Moisture  
Dew Point 39 °F    
Average Humidity 80    
Maximum Humidity 100    
Minimum Humidity 59    
Precipitation  
Precipitation T in 0.21 in 2.89 in (1956)
Month to date precipitation 0.01 1.29  
Year to date precipitation 0.01 1.29  
Sea Level Pressure  
Sea Level Pressure 30.21 in    
Wind  
Wind Speed 1 mph (SSE)    
Max Wind Speed 7 mph    
Max Gust Speed 9 mph    
Visibility 7 miles    
Events      
T = Trace of Precipitation, MM = Missing Value Source: NWS Daily Summary

Daily Weather History Graph

Daily Weather History Graph

Search for Another Location

Airport or City:

Trip Planner

Search our weather history database for the weather conditions in past years. The results will help you decide how hot, cold, wet, or windy it might be!

Date:

Astronomy

Jan. 06, 2013 Rise Set
Actual Time 7:45 AM PST 4:53 PM PST
Civil Twilight 7:13 AM PST 5:25 PM PST
Nautical Twilight 6:37 AM PST 6:01 PM PST
Astronomical Twilight 6:03 AM PST 6:36 PM PST
Moon 2:02 AM PST (1/6) 12:27 PM PST (1/6)
Length of Visible Light 10h 12m
Length of Day
9h 08m
Waning Crescent, 32% of the Moon is Illuminated
Jan 6
Waning Crescent
Jan 11
New
Jan 18
First Quarter
Jan 26
Full
Feb 3
Last Quarter

Hourly Weather History & Observations

Time (PST) Temp. Windchill Dew Point Humidity Pressure Visibility Wind Dir Wind Speed Gust Speed Precip Events Conditions
12:25 AM 37.4 °F - 37.4 °F 100% 30.19 in 2.5 mi Calm Calm - N/A   Overcast
12:48 AM 37.4 °F - 37.4 °F 100% 30.18 in 3.0 mi Calm Calm - N/A   Overcast
12:53 AM 37.9 °F - 37.9 °F 100% 30.19 in 3.0 mi Calm Calm - N/A   Overcast
1:36 AM 39.2 °F - 37.4 °F 93% 30.18 in 2.5 mi Calm Calm - N/A   Overcast
2:25 AM 39.2 °F - 37.4 °F 93% 30.20 in 3.0 mi Calm Calm - N/A   Overcast
2:46 AM 39.2 °F - 37.4 °F 93% 30.20 in 4.0 mi Calm Calm - N/A   Overcast
2:53 AM 39.0 °F - 39.0 °F 100% 30.22 in 5.0 mi Calm Calm - N/A   Overcast
3:53 AM 39.0 °F - 37.9 °F 96% 30.20 in 3.0 mi Calm Calm - N/A   Overcast
4:09 AM 39.2 °F - 39.2 °F 100% 30.19 in 5.0 mi Calm Calm - N/A   Overcast
4:30 AM 39.2 °F - 39.2 °F 100% 30.20 in 5.0 mi Calm Calm - N/A   Overcast
4:44 AM 39.2 °F - 39.2 °F 100% 30.20 in 5.0 mi Calm Calm - N/A   Overcast
4:53 AM 39.0 °F - 39.0 °F 100% 30.21 in 4.0 mi Calm Calm - N/A   Overcast
5:53 AM 39.0 °F 34.0 °F 37.9 °F 96% 30.20 in 5.0 mi SSE 6.9 mph - N/A   Overcast
6:04 AM 39.2 °F 35.0 °F 37.4 °F 93% 30.19 in 4.0 mi SSE 5.8 mph - N/A   Overcast
6:53 AM 39.0 °F - 37.9 °F 96% 30.24 in 7.0 mi Calm Calm - N/A   Overcast
7:53 AM 39.0 °F - 39.0 °F 100% 30.25 in 4.0 mi Calm Calm - N/A   Overcast
8:53 AM 39.9 °F - 39.0 °F 97% 30.25 in 5.0 mi Calm Calm - N/A   Overcast
9:50 AM 41.0 °F - 39.2 °F 93% 30.25 in 10.0 mi Calm Calm - N/A   Overcast
9:53 AM 41.0 °F 39.0 °F 39.0 °F 93% 30.27 in 10.0 mi SSE 3.5 mph - N/A   Overcast
10:53 AM 43.0 °F - 39.9 °F 89% 30.27 in 10.0 mi Calm Calm - N/A   Overcast
11:16 AM 44.6 °F - 39.2 °F 81% 30.25 in 10.0 mi Calm Calm - N/A   Scattered Clouds
11:53 AM 46.0 °F - 39.9 °F 79% 30.23 in 10.0 mi Calm Calm - N/A   Clear
12:53 PM 48.9 °F - 41.0 °F 74% 30.20 in 10.0 mi South 3.5 mph - N/A   Clear
1:53 PM 51.1 °F - 37.9 °F 61% 30.20 in 10.0 mi Variable 3.5 mph - N/A   Clear
2:53 PM 51.1 °F - 37.9 °F 61% 30.18 in 10.0 mi Calm Calm - N/A   Clear
3:53 PM 51.1 °F - 37.9 °F 61% 30.19 in 10.0 mi Calm Calm - N/A   Clear
4:53 PM 50.0 °F - 39.0 °F 66% 30.18 in 10.0 mi Calm Calm - N/A   Mostly Cloudy
5:53 PM 46.9 °F - 39.0 °F 74% 30.21 in 10.0 mi Calm Calm - N/A   Overcast
6:53 PM 46.9 °F - 39.9 °F 77% 30.19 in 10.0 mi Calm Calm - N/A   Overcast
7:53 PM 48.0 °F - 39.0 °F 71% 30.19 in 10.0 mi Calm Calm - N/A   Overcast
8:53 PM 46.9 °F - 39.0 °F 74% 30.20 in 10.0 mi Calm Calm - N/A   Overcast
9:53 PM 46.9 °F - 37.9 °F 71% 30.19 in 10.0 mi Calm Calm - 0.00 in   Overcast
10:53 PM 45.0 °F 43.5 °F 41.0 °F 86% 30.19 in 10.0 mi SSE 3.5 mph - 0.00 in   Overcast
11:53 PM 45.0 °F - 39.9 °F 82% 30.19 in 10.0 mi Calm Calm - 0.00 in   Overcast